DW2079 Bellaire TX US current weather conditions

sailwx.info

Wind from 048

Air temperature 37.2° C
Dewpoint 25.4° C

Last reported at 2020-Jul-10 19:06 UTC.
Time now 2020-Jul-10 19:47 UTC

Location: N 29°43' W 095°27'.
View on Google Maps.

See reports from other nearby stations

  
Tides and Currents Weather Stations Pressure Air Temp Water Temp Dewpoint Dewpoint Depression Visibility Wind Speed Wind Dir Waves Ship Positions
date/time (UTC)wind fromknots sea level pressurealtimeterstation pressurevisibilityair tempwater tempwave heightnotes
2020-Jul-10 19:06 048 37.2
2020-Jul-10 19:02 121 37.2
2020-Jul-10 18:56 104 37.8
2020-Jul-10 18:50 139 37.8
2020-Jul-10 18:46 152 37.2
2020-Jul-10 18:40 260 36.7
2020-Jul-10 18:35 071 36.1
2020-Jul-10 18:30 070 36.1
2020-Jul-10 18:25 079 36.7
2020-Jul-10 18:20 323 36.7
2020-Jul-10 18:16 048 0 gusting 3 36.1
2020-Jul-10 18:10 013 36.7
2020-Jul-10 18:05 339 36.7
2020-Jul-10 18:00 161 36.7
2020-Jul-10 17:55 074 36.7
2020-Jul-10 17:50 217 36.7
2020-Jul-10 17:45 011 36.1
2020-Jul-10 17:40 243 35.6
2020-Jul-10 17:35 352 0 gusting 4 35.0
2020-Jul-10 17:30 120 0 gusting 3 35.0
2020-Jul-10 17:25 334 0 gusting 5 35.6
2020-Jul-10 17:20 258 35.6
2020-Jul-10 17:17 264 36.1
2020-Jul-10 17:10 019 36.1
2020-Jul-10 17:05 244 0 gusting 3 35.6
2020-Jul-10 17:00 277 36.1
2020-Jul-10 16:55 319 0 gusting 4 35.6
2020-Jul-10 16:50 236 1 gusting 4 36.1
2020-Jul-10 16:45 256 36.1
2020-Jul-10 16:40 086 0 gusting 2 35.6
2020-Jul-10 16:35 166 0 gusting 2 35.0
2020-Jul-10 16:30 240 34.4
2020-Jul-10 16:25 326 0 gusting 5 33.9
2020-Jul-10 16:20 243 33.9
2020-Jul-10 16:15 243 33.9
2020-Jul-10 16:10 249 0 gusting 5 33.3
2020-Jul-10 16:05 235 0 gusting 4 33.3
2020-Jul-10 16:00 254 33.9
2020-Jul-10 15:55 246 33.9
2020-Jul-10 15:50 255 0 gusting 5 33.3
2020-Jul-10 15:40 264 0 gusting 2 32.8
2020-Jul-10 15:35 219 32.2
2020-Jul-10 15:25 115 0 gusting 2 31.7
2020-Jul-10 15:15 344 32.2
2020-Jul-10 15:10 244 0 gusting 4 31.7
2020-Jul-10 15:05 237 0 gusting 3 31.7
2020-Jul-10 14:55 277 0 gusting 5 31.7
2020-Jul-10 14:50 272 0 gusting 3 31.1
2020-Jul-10 14:45 006 31.1
2020-Jul-10 14:40 240 0 gusting 6 31.1
2020-Jul-10 14:35 331 1 gusting 6 30.6
2020-Jul-10 14:30 259 30.6
2020-Jul-10 14:21 254 30.6
2020-Jul-10 14:16 081 30.6
2020-Jul-10 14:11 021 30.6
2020-Jul-10 14:05 264 30.0
2020-Jul-10 14:00 083 30.0
2020-Jul-10 13:56 157 29.4
2020-Jul-10 13:50 259 28.9
2020-Jul-10 13:46 242 28.9
2020-Jul-10 13:40 233 28.9
2020-Jul-10 13:35 057 28.9
2020-Jul-10 13:31 063 28.3
2020-Jul-10 13:26 062 28.3
2020-Jul-10 13:20 341 28.3
2020-Jul-10 13:16 233 28.3
2020-Jul-10 13:10 221 27.8
2020-Jul-10 13:05 277 27.8
2020-Jul-10 13:01 019 27.8
2020-Jul-10 12:56 019 27.8
2020-Jul-10 12:50 006 27.8
2020-Jul-10 12:46 034 27.2
2020-Jul-10 12:41 034 27.2
2020-Jul-10 12:36 034 27.2
2020-Jul-10 12:31 033 27.2
2020-Jul-10 12:25 085 27.2
2020-Jul-10 12:20 085 27.2
2020-Jul-10 12:15 085 27.2
2020-Jul-10 12:10 085 27.2
2020-Jul-10 12:05 085 26.7
2020-Jul-10 12:00 085 26.7
2020-Jul-10 11:56 085 26.7
2020-Jul-10 11:50 085 26.7
2020-Jul-10 11:46 085 0 gusting 2 26.7
2020-Jul-10 11:40 085 27.2
2020-Jul-10 11:36 087 27.2
2020-Jul-10 11:31 087 27.2
2020-Jul-10 11:25 087 27.2
2020-Jul-10 11:20 087 27.2
2020-Jul-10 11:16 087 27.2
2020-Jul-10 11:10 087 27.2
2020-Jul-10 11:06 087 27.2
2020-Jul-10 11:01 087 26.7
2020-Jul-10 10:55 087 26.7
2020-Jul-10 10:50 087 26.7
2020-Jul-10 10:45 087 27.2
2020-Jul-10 10:40 087 27.2
2020-Jul-10 10:35 087 27.2
2020-Jul-10 10:30 087 27.2
2020-Jul-10 10:25 087 27.2
2020-Jul-10 10:20 087 27.2
2020-Jul-10 10:16 087 27.2
2020-Jul-10 10:10 084 27.2
2020-Jul-10 10:05 084 27.2
2020-Jul-10 10:00 084 27.2
2020-Jul-10 09:55 084 27.2
2020-Jul-10 09:50 084 27.2
2020-Jul-10 09:45 084 27.2
2020-Jul-10 09:40 084 27.2
2020-Jul-10 09:35 084 27.2
2020-Jul-10 09:31 084 27.2
2020-Jul-10 09:25 084 27.2
2020-Jul-10 09:20 084 27.2
2020-Jul-10 09:15 084 27.2
2020-Jul-10 09:10 084 27.2
2020-Jul-10 09:05 084 27.2
2020-Jul-10 09:00 335 27.2
2020-Jul-10 08:55 335 27.2
2020-Jul-10 08:50 335 27.2
2020-Jul-10 08:45 300 27.2
2020-Jul-10 08:40 300 27.2
2020-Jul-10 08:35 300 27.2
2020-Jul-10 08:31 262 27.2
2020-Jul-10 08:25 262 27.8
2020-Jul-10 08:20 262 27.8
2020-Jul-10 08:15 262 27.8
2020-Jul-10 08:10 262 27.8
2020-Jul-10 08:05 262 27.8
2020-Jul-10 08:00 262 27.8
2020-Jul-10 07:55 262 27.8
2020-Jul-10 07:50 262 27.8
2020-Jul-10 07:45 262 27.8
2020-Jul-10 07:40 262 27.8
2020-Jul-10 07:35 262 27.8
2020-Jul-10 07:30 262 27.8
2020-Jul-10 07:25 262 27.8
2020-Jul-10 07:20 262 27.8
2020-Jul-10 07:15 263 27.8
2020-Jul-10 07:10 263 27.8
2020-Jul-10 07:05 263 28.3
2020-Jul-10 06:55 263 28.3
2020-Jul-10 06:50 263 28.3
2020-Jul-10 06:40 262 28.3
2020-Jul-10 06:30 262 28.3
2020-Jul-10 06:25 262 28.3
2020-Jul-10 06:20 262 28.3
2020-Jul-10 06:15 262 28.3
2020-Jul-10 06:10 262 28.3
2020-Jul-10 06:00 262 28.3
2020-Jul-10 05:55 240 28.3
2020-Jul-10 05:45 240 28.3
2020-Jul-10 05:40 240 28.3
2020-Jul-10 05:35 240 28.9
2020-Jul-10 05:25 240 28.9
2020-Jul-10 05:17 240 28.9
2020-Jul-10 05:10 240 28.9
2020-Jul-10 05:06 240 28.9
2020-Jul-10 05:02 242 28.9
2020-Jul-10 04:56 242 28.9
2020-Jul-10 04:50 242 28.9
2020-Jul-10 04:46 242 28.9
2020-Jul-10 04:40 201 28.9
2020-Jul-10 04:35 201 29.4
2020-Jul-10 04:32 200 29.4
2020-Jul-10 04:25 125 0 gusting 7 29.4
2020-Jul-10 04:20 235 29.4
2020-Jul-10 04:16 142 29.4
2020-Jul-10 04:11 216 29.4
2020-Jul-10 04:06 212 29.4
2020-Jul-10 04:01 231 29.4
2020-Jul-10 03:55 032 30.0
2020-Jul-10 03:51 020 30.0
2020-Jul-10 03:46 075 30.0
2020-Jul-10 03:40 186 30.0
2020-Jul-10 03:35 264 30.0
2020-Jul-10 03:31 223 30.0
2020-Jul-10 03:26 232 0 gusting 5 30.0
2020-Jul-10 03:16 001 30.0
2020-Jul-10 03:10 252 30.0
2020-Jul-10 03:05 014 30.6
2020-Jul-10 03:01 252 30.6
2020-Jul-10 02:55 250 30.6
2020-Jul-10 02:50 154 30.6
2020-Jul-10 02:46 111 30.6
2020-Jul-10 02:40 112 30.6
2020-Jul-10 02:36 262 30.6
2020-Jul-10 02:31 264 31.1
2020-Jul-10 02:25 212 31.1
2020-Jul-10 02:21 075 31.1
2020-Jul-10 02:17 244 31.7
2020-Jul-10 02:10 194 31.7
2020-Jul-10 02:05 070 31.7
2020-Jul-10 02:01 183 31.7
2020-Jul-10 01:56 240 0 gusting 3 31.7
2020-Jul-10 01:51 118 31.7
2020-Jul-10 01:46 156 32.2
2020-Jul-10 01:40 329 32.2
2020-Jul-10 01:35 226 32.2
2020-Jul-10 01:31 171 32.8
2020-Jul-10 01:25 115 32.8
2020-Jul-10 01:20 242 32.8
2020-Jul-10 01:17 232 32.8
2020-Jul-10 01:11 211 32.8
2020-Jul-10 01:05 073 32.8
2020-Jul-10 01:01 089 32.8
2020-Jul-10 00:55 002 33.3
2020-Jul-10 00:51 052 33.3
2020-Jul-10 00:46 224 33.3
2020-Jul-10 00:40 003 33.3
2020-Jul-10 00:35 230 33.3
2020-Jul-10 00:31 261 33.9
2020-Jul-10 00:26 145 0 gusting 8 33.9
2020-Jul-10 00:21 244 34.4
2020-Jul-10 00:16 245 34.4
2020-Jul-10 00:10 300 34.4
2020-Jul-10 00:05 181 35.0
2020-Jul-09 23:55 219 34.4
2020-Jul-09 23:51 228 35.0
2020-Jul-09 23:46 224 35.0
2020-Jul-09 23:40 171 35.6
2020-Jul-09 23:35 204 0 gusting 5 35.6
2020-Jul-09 23:32 177 0 gusting 3 35.0
2020-Jul-09 23:25 208 35.6
2020-Jul-09 23:20 021 0 gusting 6 35.6
2020-Jul-09 23:15 240 35.6
2020-Jul-09 23:10 112 35.6
2020-Jul-09 23:05 240 0 gusting 7 36.1
2020-Jul-09 23:00 221 36.1
2020-Jul-09 22:55 232 36.7
2020-Jul-09 22:50 212 1 gusting 5 36.7
2020-Jul-09 22:47 217 0 gusting 3 36.7
2020-Jul-09 22:40 235 36.7
2020-Jul-09 22:35 210 36.7
2020-Jul-09 22:31 218 37.2
2020-Jul-09 22:25 223 0 gusting 4 37.2
2020-Jul-09 22:20 204 0 gusting 4 37.8
2020-Jul-09 22:16 208 0 gusting 3 37.8
2020-Jul-09 22:10 150 0 gusting 3 37.8
2020-Jul-09 22:05 133 37.8
2020-Jul-09 22:01 233 0 gusting 4 37.8
2020-Jul-09 21:55 283 37.8
2020-Jul-09 21:50 139 0 gusting 4 38.3
2020-Jul-09 21:46 258 0 gusting 6 37.8
2020-Jul-09 21:40 210 0 gusting 6 37.8
2020-Jul-09 21:35 120 0 gusting 6 37.8
2020-Jul-09 21:31 185 0 gusting 6 37.8
2020-Jul-09 21:25 192 0 gusting 6 38.3
2020-Jul-09 21:20 219 0 gusting 5 38.3
2020-Jul-09 21:15 253 38.3
2020-Jul-09 21:10 129 0 gusting 6 38.3
2020-Jul-09 21:05 227 1 gusting 3 38.9
2020-Jul-09 21:01 223 0 gusting 6 38.9
2020-Jul-09 20:55 125 1 gusting 6 38.9
2020-Jul-09 20:50 242 0 gusting 4 38.9
2020-Jul-09 20:45 235 0 gusting 6 38.9
2020-Jul-09 20:40 010 1 gusting 6 38.9
2020-Jul-09 20:35 255 0 gusting 4 38.9
2020-Jul-09 20:31 220 0 gusting 4 38.9
2020-Jul-09 20:25 210 38.9
2020-Jul-09 20:20 254 2 gusting 6 38.3
2020-Jul-09 20:15 182 1 gusting 6 38.3
2020-Jul-09 20:10 098 0 gusting 9 38.3
2020-Jul-09 20:05 071 1 gusting 9 38.3
2020-Jul-09 20:01 244 1 gusting 6 38.3
2020-Jul-09 19:55 233 37.8
2020-Jul-09 19:50 201 1 gusting 5 37.8
2020-Jul-09 19:45 161 1 gusting 5 38.3
2020-Jul-09 19:40 067 38.3
2020-Jul-09 19:35 224 1 gusting 5 37.8
2020-Jul-09 19:31 209 0 gusting 5 37.8
2020-Jul-09 19:25 263 1 gusting 5 37.8
2020-Jul-09 19:20 232 0 gusting 5 37.2
2020-Jul-09 19:15 227 37.2
2020-Jul-09 19:10 052 37.8
2020-Jul-09 19:05 190 0 gusting 7 37.8
2020-Jul-09 19:00 249 37.8
2020-Jul-09 18:55 098 1 gusting 4 37.8
2020-Jul-09 18:50 233 0 gusting 3 37.8
2020-Jul-09 18:40 244 0 gusting 5 38.3
2020-Jul-09 18:35 178 1 gusting 4 37.8
2020-Jul-09 18:30 177 0 gusting 4 37.2
2020-Jul-09 18:25 229 37.2
2020-Jul-09 18:20 237 37.2
2020-Jul-09 18:10 060 37.8
2020-Jul-09 18:05 229 0 gusting 5 37.8
2020-Jul-09 17:55 202 37.8
2020-Jul-09 17:50 262 37.8
2020-Jul-09 17:45 225 0 gusting 3 37.2
2020-Jul-09 17:40 142 1 gusting 3 37.8
2020-Jul-09 17:35 205 37.8
2020-Jul-09 17:25 196 0 gusting 5 37.8
2020-Jul-09 17:20 121 2 gusting 5 37.8
2020-Jul-09 17:11 241 0 gusting 3 37.2
2020-Jul-09 17:06 233 0 gusting 4 36.7
2020-Jul-09 17:02 153 1 gusting 4 36.7
2020-Jul-09 16:55 253 0 gusting 9 36.7
2020-Jul-09 16:50 219 0 gusting 9 36.1
2020-Jul-09 16:46 219 1 gusting 4 36.1
2020-Jul-09 16:41 255 0 gusting 3 35.6
2020-Jul-09 16:35 183 35.6
2020-Jul-09 16:31 229 0 gusting 4 35.0
2020-Jul-09 16:26 231 34.4
2020-Jul-09 16:20 199 0 gusting 5 34.4
2020-Jul-09 16:16 135 1 gusting 5 34.4
2020-Jul-09 16:10 175 0 gusting 4 34.4
2020-Jul-09 16:01 246 0 gusting 5 34.4
2020-Jul-09 15:55 220 0 gusting 6 34.4
2020-Jul-09 15:50 246 0 gusting 6 34.4
2020-Jul-09 15:46 061 0 gusting 3 33.9
2020-Jul-09 15:40 193 0 gusting 3 33.9
2020-Jul-09 15:35 224 0 gusting 4 33.3
2020-Jul-09 15:32 200 0 gusting 3 32.8
2020-Jul-09 15:25 198 0 gusting 3 32.8
2020-Jul-09 15:20 225 1 gusting 5 32.8
2020-Jul-09 15:15 231 32.2
2020-Jul-09 15:10 021 32.2
2020-Jul-09 15:05 067 32.2
2020-Jul-09 15:00 064 32.2
2020-Jul-09 14:55 237 31.7
2020-Jul-09 14:50 185 31.7
2020-Jul-09 14:45 235 31.1
2020-Jul-09 14:40 215 31.1
2020-Jul-09 14:35 175 31.1
2020-Jul-09 14:30 048 31.1
2020-Jul-09 14:25 181 31.1
2020-Jul-09 14:20 194 30.6
2020-Jul-09 14:16 245 30.6
2020-Jul-09 14:10 194 30.0
2020-Jul-09 14:05 198 30.0
2020-Jul-09 14:00 207 30.6
2020-Jul-09 13:55 011 30.6
2020-Jul-09 13:50 152 30.0
2020-Jul-09 13:45 223 30.0
2020-Jul-09 13:40 284 30.0
2020-Jul-09 13:35 122 29.4
2020-Jul-09 13:25 187 29.4
2020-Jul-09 13:20 312 29.4
2020-Jul-09 13:15 002 28.9
2020-Jul-09 13:10 261 28.9
2020-Jul-09 13:05 274 28.9
2020-Jul-09 13:00 357 28.3
2020-Jul-09 12:55 222 28.3
2020-Jul-09 12:50 210 28.3
2020-Jul-09 12:45 047 28.3
2020-Jul-09 12:40 073 27.8
2020-Jul-09 12:35 017 27.8
2020-Jul-09 12:30 048 27.8
2020-Jul-09 12:25 071 27.8
2020-Jul-09 12:20 062 27.8
2020-Jul-09 12:15 267 27.8
2020-Jul-09 12:10 019 27.8
2020-Jul-09 12:05 271 27.2
2020-Jul-09 12:00 288 27.2
2020-Jul-09 11:55 288 27.2
2020-Jul-09 11:50 054 27.2
2020-Jul-09 11:41 076 27.2
2020-Jul-09 11:36 077 27.2
2020-Jul-09 11:35 077 27.2
2020-Jul-09 11:26 083 27.2
2020-Jul-09 11:21 083 27.2
2020-Jul-09 11:17 083 27.2
2020-Jul-09 11:11 083 27.2
2020-Jul-09 11:05 083 27.2
2020-Jul-09 11:02 083 27.2
2020-Jul-09 10:56 083 27.2
2020-Jul-09 10:51 252 27.2
2020-Jul-09 10:48 252 27.2
2020-Jul-09 10:40 256 27.2
2020-Jul-09 10:36 256 27.2
2020-Jul-09 10:33 256 27.2
2020-Jul-09 10:25 256 27.2
2020-Jul-09 10:21 256 27.2
2020-Jul-09 10:19 256 27.2
2020-Jul-09 10:10 256 27.2
2020-Jul-09 10:06 256 27.2
2020-Jul-09 10:01 256 27.8
2020-Jul-09 09:56 258 27.8
2020-Jul-09 09:51 258 27.8
2020-Jul-09 09:47 258 27.8
2020-Jul-09 09:40 258 27.8
2020-Jul-09 09:35 258 27.8
2020-Jul-09 09:30 258 27.8
2020-Jul-09 09:25 258 27.8
2020-Jul-09 09:20 258 27.8
2020-Jul-09 09:16 258 27.8
2020-Jul-09 09:11 259 27.8
2020-Jul-09 09:06 260 27.8
2020-Jul-09 09:02 260 27.8
2020-Jul-09 08:55 260 27.8
2020-Jul-09 08:50 266 27.8
2020-Jul-09 08:47 266 27.8
2020-Jul-09 08:41 270 27.8
2020-Jul-09 08:35 233 27.8
2020-Jul-09 08:31 233 27.8
2020-Jul-09 08:25 233 27.8
2020-Jul-09 08:20 245 27.8
2020-Jul-09 08:16 245 27.8
2020-Jul-09 08:10 245 27.8
2020-Jul-09 08:06 245 27.8
2020-Jul-09 08:01 225 27.8
2020-Jul-09 07:55 225 27.8
2020-Jul-09 07:50 228 27.8
2020-Jul-09 07:46 228 27.8
2020-Jul-09 07:40 226 27.8
2020-Jul-09 07:35 075 27.8
2020-Jul-09 07:31 222 27.8
2020-Jul-09 07:26 222 27.8
2020-Jul-09 07:20 222 27.8
2020-Jul-09 07:19 222 27.8
2020-Jul-09 07:10 222 27.8
2020-Jul-09 07:05 222 27.8
2020-Jul-09 07:01 196 28.3
2020-Jul-09 06:55 196 28.3
2020-Jul-09 06:50 291 28.3
2020-Jul-09 06:45 292 28.3
2020-Jul-09 06:40 292 28.3
2020-Jul-09 06:35 256 28.3
2020-Jul-09 06:31 262 28.3
2020-Jul-09 06:25 278 28.3
2020-Jul-09 06:20 278 28.3
2020-Jul-09 06:15 237 28.3
2020-Jul-09 06:10 237 28.3
2020-Jul-09 06:05 237 28.3
2020-Jul-09 06:01 232 28.3
2020-Jul-09 05:55 234 28.3
2020-Jul-09 05:50 231 28.3
2020-Jul-09 05:45 195 28.3
2020-Jul-09 05:40 194 28.9
2020-Jul-09 05:35 192 28.9
2020-Jul-09 05:31 192 28.9
2020-Jul-09 05:25 192 28.9
2020-Jul-09 05:20 242 28.9
2020-Jul-09 05:15 242 28.9
2020-Jul-09 05:10 242 28.9
2020-Jul-09 05:05 249 28.9
2020-Jul-09 05:00 244 28.9
2020-Jul-09 04:55 244 28.9
2020-Jul-09 04:50 244 28.9
2020-Jul-09 04:45 245 28.9
2020-Jul-09 04:40 245 28.9
2020-Jul-09 04:35 245 28.9
2020-Jul-09 04:30 245 29.4
2020-Jul-09 04:25 233 29.4
2020-Jul-09 04:20 185 29.4
2020-Jul-09 04:16 198 29.4
2020-Jul-09 04:10 188 29.4
2020-Jul-09 04:05 122 29.4
2020-Jul-09 04:01 229 29.4
2020-Jul-09 03:55 350 29.4
2020-Jul-09 03:50 235 30.0
2020-Jul-09 03:46 191 29.4
2020-Jul-09 03:40 232 29.4
2020-Jul-09 03:35 179 29.4
2020-Jul-09 03:31 094 29.4
2020-Jul-09 03:25 025 29.4
2020-Jul-09 03:20 264 30.0
2020-Jul-09 03:15 018 30.0
2020-Jul-09 03:10 306 30.0
2020-Jul-09 03:05 208 30.0
2020-Jul-09 03:01 119 30.0
2020-Jul-09 02:55 201 30.6
2020-Jul-09 02:50 241 30.6
2020-Jul-09 02:45 262 30.6
2020-Jul-09 02:40 131 30.6
2020-Jul-09 02:35 157 30.6
2020-Jul-09 02:31 228 31.1
2020-Jul-09 02:25 107 31.1
2020-Jul-09 02:20 262 31.1
2020-Jul-09 02:15 015 31.1
2020-Jul-09 02:10 187 31.1
2020-Jul-09 02:05 350 31.1
2020-Jul-09 02:00 292 31.1
2020-Jul-09 01:55 023 31.7
2020-Jul-09 01:50 063 31.7
2020-Jul-09 01:46 234 31.7
2020-Jul-09 01:40 236 32.2
2020-Jul-09 01:35 259 32.2
2020-Jul-09 01:30 208 32.2
2020-Jul-09 01:25 236 32.2
2020-Jul-09 01:20 233 32.2
2020-Jul-09 01:15 166 32.2
2020-Jul-09 01:10 100 32.8
2020-Jul-09 01:05 252 32.8
2020-Jul-09 01:01 161 32.8
2020-Jul-09 00:55 088 33.3
2020-Jul-09 00:50 182 33.3
2020-Jul-09 00:46 217 33.3
2020-Jul-09 00:40 221 33.9
2020-Jul-09 00:35 250 33.9
2020-Jul-09 00:30 206 33.9
2020-Jul-09 00:25 094 34.4
2020-Jul-09 00:20 211 34.4
2020-Jul-09 00:15 154 34.4
2020-Jul-09 00:10 118 34.4
2020-Jul-09 00:05 240 35.0
2020-Jul-09 00:00 264 35.0
2020-Jul-08 23:55 232 35.0
2020-Jul-08 23:50 161 35.0
2020-Jul-08 23:45 239 35.0
2020-Jul-08 23:40 010 35.0
2020-Jul-08 23:35 223 35.0
2020-Jul-08 23:30 231 35.0
2020-Jul-08 23:25 089 0 gusting 6 35.6
2020-Jul-08 23:20 245 35.6
2020-Jul-08 23:15 161 35.6
2020-Jul-08 23:10 240 35.6
2020-Jul-08 23:05 233 35.6
2020-Jul-08 23:00 190 35.6
2020-Jul-08 22:55 176 35.6
2020-Jul-08 22:50 193 35.6
2020-Jul-08 22:45 171 36.1
2020-Jul-08 22:40 326 36.1
2020-Jul-08 22:35 166 36.1
2020-Jul-08 22:30 065 36.7
2020-Jul-08 22:25 097 36.7
2020-Jul-08 22:20 246 0 gusting 6 37.2
2020-Jul-08 22:15 229 0 gusting 6 37.2
2020-Jul-08 22:10 221 0 gusting 3 36.7
2020-Jul-08 22:00 231 1 gusting 6 37.2
2020-Jul-08 21:55 179 1 gusting 6 37.2
2020-Jul-08 21:50 230 0 gusting 5 37.8
2020-Jul-08 21:40 240 37.8
2020-Jul-08 21:35 198 0 gusting 3 37.8
2020-Jul-08 21:30 259 37.8
2020-Jul-08 21:25 204 38.3
2020-Jul-08 21:15 203 1 gusting 4 38.3
2020-Jul-08 21:10 269 0 gusting 4 38.3
2020-Jul-08 21:05 171 38.3
2020-Jul-08 20:55 235 1 gusting 6 37.8
2020-Jul-08 20:50 195 0 gusting 7 37.8
2020-Jul-08 20:45 251 1 gusting 7 38.3
2020-Jul-08 20:40 161 1 gusting 5 38.3
2020-Jul-08 20:35 186 37.8
2020-Jul-08 20:30 233 1 gusting 5 37.8
2020-Jul-08 20:25 219 1 gusting 6 38.3
2020-Jul-08 20:20 246 1 gusting 6 38.3
2020-Jul-08 20:15 239 1 gusting 5 38.3
2020-Jul-08 20:02 245 0 gusting 4 37.8
2020-Jul-08 19:56 227 37.8
2020-Jul-08 19:51 217 0 gusting 5 37.2
2020-Jul-08 19:47 146 0 gusting 4 37.8
2020-Jul-08 19:40 181 0 gusting 3 37.2
2020-Jul-08 19:35 072 37.2
2020-Jul-08 19:34 145 0 gusting 5 37.8
2020-Jul-08 19:25 199 1 gusting 3 37.8
2020-Jul-08 19:20 156 0 gusting 7 37.8
2020-Jul-08 19:16 141 37.8
2020-Jul-08 19:11 194 1 gusting 6 37.2
2020-Jul-08 19:05 262 0 gusting 6 37.2
2020-Jul-08 19:01 194 1 gusting 6 37.2